www.pogodaiklimat.ru
ПОГОДА в Ики-Буруле

Архив погоды в Ики-Буруле (Калмыкия, Россия)

Время
(UTC), дата
00 15.07
03 15.07
06 15.07
09 15.07
12 15.07
15 15.07
18 15.07
21 15.07
00 16.07
03 16.07
06 16.07
09 16.07
12 16.07
15 16.07
18 16.07
21 16.07
00 17.07
03 17.07
06 17.07
09 17.07
12 17.07
15 17.07
18 17.07
21 17.07
00 18.07
03 18.07
06 18.07
09 18.07
12 18.07
15 18.07
18 18.07
21 18.07
00 19.07
03 19.07
06 19.07
09 19.07
12 19.07
15 19.07
18 19.07
21 19.07
00 20.07
03 20.07
06 20.07
09 20.07
12 20.07
15 20.07
18 20.07
21 20.07
00 21.07
03 21.07
06 21.07
09 21.07
12 21.07
15 21.07
18 21.07
21 21.07
Ветер
(напр.,м/с)
Видим. Явления Облачность Т
(С)
Тd
(С)
f
(%)
Тe
(С)
Тes
(С)
Комфортность P
(гПа)
Po
(гПа)
Тmin
(С)
Tmax
(С)
R
(мм)
R24
(мм)
S
(см)
СВ 2 20 км ясно +24.3 +8.4 36 +25 +25 комфорт 1009.7 996.7
штиль 0 20 км ясно +25.5 +9.7 37 +26 +28 жарко 1010.0 997.1 +23.6
СВ 3 20 км ясно +31.6 +10.5 27 +31 +41 жарко 1009.8 997.2
СВ 2 20 км ясно +35.3 +9.9 21 +34 +52 опасность солнечного удара 1009.1 996.6
СВ 2 20 км 3/3 1500 м
[Cu hum]
+36.5 +8.9 19 +35 +43 очень жарко 1007.9 995.5
СВ 2 20 км 3/3 1500 м
[Cu hum]
+36.1 +8.9 19 +34 +36 очень жарко 1007.7 995.3 +37.6
СВ 2 20 км 3/0
[Ac cuf]
+32.4 +9.1 24 +31 +31 жарко 1008.6 996.0
СВ 3 20 км ясно +28.3 +9.7 31 +28 +28 жарко 1009.1 996.3
В 1 20 км ясно +24.9 +9.9 39 +26 +26 жарко 1008.9 996.0
В 1 20 км ясно +27.1 +11.1 37 +28 +30 жарко 1009.4 996.6 +23.1
штиль 0 20 км ясно +35.0 +10.9 23 +34 +50 очень жарко 1009.6 997.1
СВ 2 20 км 9/8 1500 м
[Cu hum Ac trans]
+35.4 +10.4 22 +34 +37 очень жарко 1009.2 996.8
В 3 20 км 9/5 1500 м
[Cb cap Ac cast]
+37.5 +10.8 20 +36 +39 очень жарко 1008.7 996.3
СВ 4 20 км 8/3 1500 м
[Cu hum Ac cast]
+36.7 +8.9 18 +35 +35 очень жарко 1008.6 996.2 +38.0
СВ 4 20 км ясно +31.8 +8.6 24 +31 +31 жарко 1010.3 997.7
СВ 4 20 км ясно +27.8 +6.9 27 +27 +27 жарко 1011.2 998.3
В 3 20 км ясно +25.5 +7.4 32 +26 +26 жарко 1011.4 998.5
В 2 20 км ясно +26.7 +7.9 30 +27 +28 жарко 1012.4 999.5 +24.8
СВ 4 20 км ясно +33.1 +7.9 21 +32 +39 жарко 1013.0 1000.4
С 4 {10} 20 км 3/3 1500 м
[Cu hum]
+34.8 +9.9 22 +34 +42 очень жарко 1012.6 1000.1
С 3 {11} 20 км 1/1 1500 м
[Cu hum]
+35.8 +5.5 15 +33 +42 жарко 1011.6 999.1
СВ 3 20 км ясно +35.1 +3.8 14 +32 +33 жарко 1011.0 998.4 +36.2
С 3 20 км ясно +29.8 +5.4 21 +28 +28 жарко 1012.2 999.4
В 2 20 км ясно +26.8 +13.7 44 +29 +29 жарко 1012.5 999.6
В 2 20 км ясно +25.0 +17.5 63 +29 +29 душно 1012.6 999.7
В 1 20 км 3/0
[Ci sp]
+25.5 +17.5 61 +30 +31 душно 1013.2 1000.3 +22.6
В 1 20 км 3/0
[Ac cast]
+33.3 +12.1 28 +34 +44 очень жарко 1013.0 1000.4
СВ 2 20 км 4/4 1500 м
[Cu hum]
+35.8 +11.0 22 +35 +46 очень жарко 1012.0 999.5
С 1 20 км 3/0
[Ac cast]
+37.2 +4.8 14 +34 +45 очень жарко 1010.5 998.0
СВ 2 20 км ясно +35.9 +5.1 15 +33 +35 жарко 1009.8 997.3 +37.5
СВ 2 20 км ясно +30.9 +3.8 18 +29 +29 жарко 1010.4 997.7
В 2 20 км ясно +26.5 +3.8 23 +25 +25 комфорт 1010.2 997.3
штиль 0 20 км ясно +23.5 +4.4 29 +23 +23 комфорт 1009.4 996.4
штиль 0 20 км ясно +26.6 +5.5 26 +26 +28 жарко 1009.1 996.3 +22.5
С 1 20 км 4/0
[Ac cast]
+35.5 +6.5 17 +33 +43 жарко 1008.2 995.7
СВ 3 20 км 4/4 1500 м
[Cu hum]
+37.2 +8.8 18 +35 +45 очень жарко 1006.8 994.5
В 2 20 км 4/4 1500 м
[Cu hum]
+38.8 +8.1 16 +37 +44 очень жарко 1005.4 993.1
В 2 20 км 9/3 1500 м
[Cu hum Ci fib]
+38.8 +7.7 15 +37 +37 очень жарко 1003.6 991.3 +39.7
Ю 2 20 км 9/0
[Ac trans Ci fib]
+32.4 +7.7 22 +31 +31 жарко 1004.2 991.7
Ю 3 20 км 9/0
[Ac cast Ci fib]
+30.7 +5.3 20 +29 +29 жарко 1003.5 990.9
З 2 20 км 4/0
[Ci fib]
+26.9 +5.5 25 +26 +26 жарко 1003.2 990.4
штиль 0 20 км 9/0
[Ac trans Ci]
+26.9 +6.9 28 +26 +28 жарко 1003.1 990.3 +25.8
СВ 5-11 {11} 20 км 8/3 1000 м
[Cu hum Ci]
+31.7 +15.9 39 +35 +38 очень душно 1003.3 990.8
СВ 4 {11} 20 км 9/3 1500 м
[Cu hum Ac trans Ci]
+36.4 +14.2 27 +37 +42 очень жарко 1003.0 990.7
В 4-14 {14} 20 км гроза без осадков {ливн. дождь} 9/8 1000 м
[Cb cap Ci sp]
+34.7 +14.9 31 +36 +38 душно 1002.4 990.0
С 5-10 {19} 10 км гроза, ливневой дождь 10/10 600 м
[Cb cap]
+22.6 +18.2 76 +28 +28 душно 1005.3 992.4 +38.4 24
С 3 {10} 20 км в посл. час ливневой дождь {гроза} 10/10 600 м
[Cb cap]
+23.0 +16.8 68 +28 +28 душно 1006.0 993.1
СВ 4 20 км {ливн. дождь} 9/5 1000 м
[Sc Ac trans Ci sp]
+25.7 +15.5 53 +29 +29 душно 1005.0 992.2
З 2 20 км {ливн. дождь} 6/0
[Ac trans Ci sp]
+21.8 +19.6 87 +27 +27 душно 1008.0 995.0
З 1 20 км 9/3 300 м
[Cb cap Ac As]
+21.7 +20.1 91 +27 +28 душно 1008.5 995.5 +21.4 0.6
СВ 3 20 км 9/0
[Ac trans Ci sp]
+25.0 +15.5 56 +28 +33 жарко 1009.2 996.4
СВ 2 20 км 3/1 1000 м
[Cu hum Ci sp]
+30.5 +14.0 37 +32 +48 жарко 1008.9 996.3
З 2 20 км 1/1 1000 м
[Cu hum]
+33.0 +13.5 31 +34 +44 очень жарко 1008.0 995.5
З 2 20 км 1/1 1500 м
[Cu hum]
+33.1 +10.8 26 +33 +34 жарко 1007.5 995.0 +33.7
В 1 20 км ясно +27.1 +13.8 44 +29 +29 жарко 1008.8 996.0
В 2 20 км 3/0
[Ac trans]
+23.6 +12.9 51 +26 +26 жарко 1008.7 995.7
Местоположение метеостанции Ики-Бурул (Калмыкия, Россия): широта 45.80 долгота 44.63 высота над уровнем моря 113 м.
В архиве по умолчанию представлена погода в Ики-Буруле за последнюю неделю. Архивные данные за месяц целиком и за предыдущие месяцы, начиная с января 2011 года, Вы можете получить, выбрав интересующий диапазон дат из раскрывающегося списка и нажав кнопку "Найти!".
*Определитесь, кто Вы:
Внимание! Время в таблицах - всемирное. Для получения местного времени необходимо прибавить поправку, которая равна 3 ч.
Некоторые строки с данными для отдельных станций могут быть выделены курсивом. Это означает, что фактические данные отсутствуют по различным причинам, а приведенные значения являются расчетными модельными данными для данного пункта наблюдений.
Смотрите также архив погоды в соседних городах и на ближайших метеорологических станциях:
Партнеры нашего сайта:      
Пояснения к столбцам:
  • Ветер - указаны скорость ветра в м/с - средняя за 10 мин, порывы в срок и между сроками (в фигурных скобках) и направление, откуда дует ветер: С - северный,
  • СВ - северо-восточный, В - восточный, ЮВ - юго-восточный, Ю - южный, ЮЗ - юго-западный, З - западный, СЗ - северо-западный.
  • Видимость - горизонтальная дальность видимости в метрах или километрах. При видимости от 1 до 10 км при отсутствии осадков обычно наблюдается дымка, при ухудшении видимости до 1 км и менее - туман. В сухую погоду видимость может ухудшаться дымом, пылью или мглою.
  • Явления - указаны атмосферные явления, наблюдавшиеся в срок или в последний час перед сроком; фигурными скобками обозначены явления, наблюдавшиеся между сроками (за 1-3 часа до срока); квадратными скобками обозначены град или гололедные отложения с указанием их диаметра в мм.
  • Облачность - указаны через наклонную черту общая и нижняя облачность в баллах и высота нижней границы облаков в метрах; квадратными скобками обозначены формы облаков: Ci - перистые, Cs - перисто-слоистые, Cc - перисто-кучевые, Ac - высококучевые, As - высокослоистые, Sc - слоисто-кучевые, Ns - слоисто-дождевые, Cu - кучевые, Cb - кучево-дождевые. Подробнее классификацию облаков см. в Атласе облаков (PDF).
  • T - Температура воздуха - температура, измеренная на высоте 2 м над землей.
  • Td - Температура точки росы - температура, при понижении до которой содержащийся в воздухе водяной пар достигнет насыщения.
  • f - Относительная влажность воздуха - влажноcть воздуха, измеренная на высоте 2 м над землей.
  • Te - Эффективная температура - температура, которую ощущает одетый по сезону человек в тени. Характеристика душности погоды. При расчете учитывается влияние влажности воздуха и скорости ветра на теплоощущения человека.
  • Tes - Эффективная температура на солнце - температура, которую ощущает человек, с поправкой на солнечный нагрев. Характеристика знойности погоды. Зависит от высоты солнца над горизонтом, облачности и скорости ветра. Ночью, в пасмурную погоду, а также при ветре 12 м/с и более поправка равна нулю.
  • P - Атмосферное давление - приведенное к уровню моря атмосферное давление.
  • Po - Атмосферное давление - измеренное на уровне метеостанции атмосферное давление.
  • Tmin - Минимальная температура - минимум температуры воздуха на высоте 2 м над землей.
  • Tmax - Максимальная температура - максимум температуры воздуха на высоте 2 м над землей.
  • R - Количество осадков - Количество выпавших осадков за период времени, мм. При наведении курсора мыши на число - период времени, за который выпало указанное количество осадков.
  • R24 - Количество осадков - Количество выпавших осадков за 24 часа, мм.
  • S - Снежный покров - Высота снежного покрова, см. При наведении курсора мыши на число - состояние снежного покрова и степень покрытия местности в баллах.